Middlesboro, KY

5:46 PM EDT on September 25, 2016 (GMT -0400)
Middlesboro

Weather History for K1A6 - November, 2012

Change the Weather History Date:

Thursday, November 8, 2012

  Actual Average (KLOZ) Record (KLOZ)
Temperature  
Mean Temperature 44 °F 50 °F  
Max Temperature 57 °F 62 °F 77 °F (1975)
Min Temperature 32 °F 39 °F 19 °F (1967)
Degree Days  
Heating Degree Days 20 15  
Month to date heating degree days 111  
Since 1 July heating degree days 417  
Cooling Degree Days 0 0  
Month to date cooling degree days 0  
Year to date cooling degree days 1188  
Moisture  
Dew Point 34 °F    
Average Humidity 82    
Maximum Humidity 100    
Minimum Humidity 36    
Precipitation  
Precipitation 0.00 in 0.11 in 2.66 in (1986)
Month to date precipitation 0.91  
Year to date precipitation 39.98  
Sea Level Pressure  
Sea Level Pressure 30.18 in    
Wind  
Wind Speed 1 mph (NNE)    
Max Wind Speed 8 mph    
Max Gust Speed -    
Visibility 6 miles    
Events Fog    
T = Trace of Precipitation, MM = Missing Value Source: NWS Daily Summary

Daily Weather History Graph

Daily Weather History Graph

Search for Another Location

Airport or City:

Trip Planner

Search our weather history database for the weather conditions in past years. The results will help you decide how hot, cold, wet, or windy it might be!

Date:

Astronomy

Nov. 08, 2012 Rise Set
Actual Time 6:05 AM CST 4:31 PM CST
Civil Twilight 5:38 AM CST 4:58 PM CST
Nautical Twilight 5:07 AM CST 5:29 PM CST
Astronomical Twilight 4:37 AM CST 5:59 PM CST
Moon 12:09 AM CST (11/8) 1:03 PM CST (11/8)
Length of Visible Light 11h 19m
Length of Day
10h 25m
Waning Crescent, 32% of the Moon is Illuminated
Nov 8
Waning Crescent
Nov 13
New
Nov 20
First Quarter
Nov 28
Full
Dec 6
Last Quarter

Hourly Weather History & Observations

Time (CST) Temp. Windchill Dew Point Humidity Pressure Visibility Wind Dir Wind Speed Gust Speed Precip Events Conditions
12:15 AM 35.6 °F - 35.6 °F 100% 30.09 in 3.0 mi Calm Calm - N/A   Clear
12:35 AM 35.6 °F - 33.8 °F 93% 30.09 in 4.0 mi Calm Calm - N/A   Clear
1:15 AM 33.8 °F - 33.8 °F 100% 30.10 in 3.0 mi Calm Calm - N/A   Clear
1:35 AM 33.8 °F - 33.8 °F 100% 30.11 in 4.0 mi Calm Calm - N/A   Clear
1:55 AM 33.8 °F - 33.8 °F 100% 30.11 in 3.0 mi Calm Calm - N/A   Clear
2:15 AM 33.8 °F - 33.8 °F 100% 30.11 in 2.5 mi Calm Calm - N/A   Scattered Clouds
2:35 AM 33.8 °F - 32.0 °F 93% 30.12 in 4.0 mi Calm Calm - N/A   Scattered Clouds
2:55 AM 33.8 °F - 32.0 °F 93% 30.13 in 4.0 mi Calm Calm - N/A   Scattered Clouds
3:15 AM 33.8 °F - 32.0 °F 93% 30.13 in 2.0 mi Calm Calm - N/A   Mostly Cloudy
3:35 AM 33.8 °F - 32.0 °F 93% 30.14 in 0.2 mi Calm Calm - N/A Fog Fog
3:55 AM 33.8 °F - 32.0 °F 93% 30.14 in 0.2 mi Calm Calm - N/A Fog Fog
4:15 AM 32.0 °F - 30.2 °F 93% 30.15 in 0.2 mi Calm Calm - N/A Fog Fog
4:35 AM 32.0 °F - 30.2 °F 93% 30.15 in 0.2 mi Calm Calm - N/A Fog Fog
4:55 AM 32.0 °F - 30.2 °F 93% 30.16 in 0.2 mi Calm Calm - N/A Fog Fog
5:15 AM 32.0 °F - 30.2 °F 93% 30.17 in 0.2 mi Calm Calm - N/A Fog Fog
5:35 AM 32.0 °F - 30.2 °F 93% 30.17 in 0.2 mi Calm Calm - N/A Fog Fog
5:55 AM 32.0 °F - 30.2 °F 93% 30.18 in 0.2 mi Calm Calm - N/A Fog Fog
6:15 AM 32.0 °F - 30.2 °F 93% 30.19 in 0.8 mi Calm Calm - N/A   Overcast
6:35 AM 32.0 °F - 30.2 °F 93% 30.20 in 0.2 mi Calm Calm - N/A Fog Fog
6:55 AM 32.0 °F - 30.2 °F 93% 30.21 in 0.2 mi Calm Calm - N/A Fog Fog
7:15 AM 32.0 °F - 30.2 °F 93% 30.22 in 0.2 mi Calm Calm - N/A Fog Fog
7:35 AM 33.8 °F - 32.0 °F 93% 30.22 in 0.2 mi Calm Calm - N/A Fog Fog
7:55 AM 33.8 °F - 33.8 °F 100% 30.23 in 0.2 mi Calm Calm - N/A Fog Fog
8:15 AM 33.8 °F - 33.8 °F 100% 30.23 in 0.2 mi Calm Calm - N/A Fog Fog
8:35 AM 35.6 °F - 35.6 °F 100% 30.23 in 0.2 mi Calm Calm - N/A Fog Fog
8:55 AM 37.4 °F - 37.4 °F 100% 30.23 in 0.2 mi Calm Calm - N/A Fog Fog
9:15 AM 42.8 °F - 41.0 °F 93% 30.23 in 4.0 mi Calm Calm - N/A   Scattered Clouds
9:35 AM 42.8 °F - 42.8 °F 100% 30.23 in 7.0 mi Calm Calm - N/A   Clear
9:55 AM 46.4 °F - 44.6 °F 93% 30.23 in 7.0 mi Calm Calm - N/A   Clear
10:15 AM 48.2 °F - 41.0 °F 76% 30.23 in 10.0 mi East 5.8 mph - N/A   Clear
10:35 AM 50.0 °F - 41.0 °F 71% 30.23 in 10.0 mi Calm Calm - N/A   Clear
10:55 AM 51.8 °F - 39.2 °F 62% 30.22 in 10.0 mi Calm Calm - N/A   Clear
11:15 AM 53.6 °F - 39.2 °F 58% 30.21 in 10.0 mi Calm Calm - N/A   Clear
11:35 AM 53.6 °F - 39.2 °F 58% 30.20 in 10.0 mi Calm Calm - N/A   Clear
11:55 AM 55.4 °F - 37.4 °F 51% 30.19 in 10.0 mi East 4.6 mph - N/A   Clear
12:15 PM 55.4 °F - 37.4 °F 51% 30.18 in 10.0 mi NNE 5.8 mph - N/A   Clear
12:55 PM 55.4 °F - 35.6 °F 47% 30.17 in 10.0 mi East 4.6 mph - N/A   Clear
1:15 PM 57.2 °F - 35.6 °F 44% 30.17 in 10.0 mi Calm Calm - N/A   Clear
1:35 PM 57.2 °F - 33.8 °F 41% 30.16 in 10.0 mi North 3.5 mph - N/A   Clear
1:55 PM 57.2 °F - 30.2 °F 36% 30.16 in 10.0 mi NE 8.1 mph - N/A   Clear
2:15 PM 57.2 °F - 33.8 °F 41% 30.16 in 10.0 mi NNE 6.9 mph - N/A   Clear
2:35 PM 57.2 °F - 32.0 °F 38% 30.16 in 10.0 mi NNE 8.1 mph - N/A   Clear
2:55 PM 55.4 °F - 33.8 °F 44% 30.16 in 10.0 mi NNE 6.9 mph - N/A   Clear
3:15 PM 55.4 °F - 35.6 °F 47% 30.17 in 10.0 mi NNE 8.1 mph - N/A   Clear
3:35 PM 53.6 °F - 35.6 °F 51% 30.18 in 10.0 mi North 4.6 mph - N/A   Clear
3:55 PM 53.6 °F - 35.6 °F 51% 30.17 in 10.0 mi North 3.5 mph - N/A   Clear
4:15 PM 51.8 °F - 35.6 °F 54% 30.17 in 10.0 mi Calm Calm - N/A   Clear
4:35 PM 50.0 °F - 35.6 °F 58% 30.18 in 10.0 mi Calm Calm - N/A   Clear
4:55 PM 46.4 °F 45.2 °F 35.6 °F 66% 30.18 in 10.0 mi WNW 3.5 mph - N/A   Clear
5:15 PM 44.6 °F - 37.4 °F 76% 30.19 in 10.0 mi Calm Calm - N/A   Clear
5:35 PM 44.6 °F - 35.6 °F 71% 30.20 in 10.0 mi Calm Calm - N/A   Clear
5:55 PM 42.8 °F - 35.6 °F 76% 30.20 in 10.0 mi Calm Calm - N/A   Clear
6:15 PM 42.8 °F - 35.6 °F 76% 30.20 in 10.0 mi Calm Calm - N/A   Clear
6:35 PM 41.0 °F - 35.6 °F 81% 30.20 in 10.0 mi Calm Calm - N/A   Clear
6:55 PM 39.2 °F - 35.6 °F 87% 30.20 in 10.0 mi Calm Calm - N/A   Clear
7:15 PM 37.4 °F - 35.6 °F 93% 30.20 in 5.0 mi Calm Calm - N/A   Clear
7:35 PM 37.4 °F - 35.6 °F 93% 30.20 in 7.0 mi Calm Calm - N/A   Clear
7:55 PM 37.4 °F - 35.6 °F 93% 30.20 in 7.0 mi Calm Calm - N/A   Clear
8:15 PM 35.6 °F - 35.6 °F 100% 30.20 in 10.0 mi Calm Calm - N/A   Clear
8:35 PM 35.6 °F - 35.6 °F 100% 30.21 in 10.0 mi Calm Calm - N/A   Clear
8:55 PM 35.6 °F - 33.8 °F 93% 30.21 in 10.0 mi Calm Calm - N/A   Clear
9:15 PM 35.6 °F - 33.8 °F 93% 30.22 in 10.0 mi Calm Calm - N/A   Clear
9:35 PM 33.8 °F - 33.8 °F 100% 30.21 in 10.0 mi Calm Calm - N/A   Clear
9:55 PM 33.8 °F - 33.8 °F 100% 30.21 in 7.0 mi Calm Calm - N/A   Clear
10:15 PM 33.8 °F - 33.8 °F 100% 30.21 in 7.0 mi Calm Calm - N/A   Clear
10:35 PM 33.8 °F - 32.0 °F 93% 30.22 in 7.0 mi Calm Calm - N/A   Clear
10:55 PM 33.8 °F - 32.0 °F 93% 30.22 in 7.0 mi Calm Calm - N/A   Clear
11:15 PM 33.8 °F - 32.0 °F 93% 30.22 in 5.0 mi Calm Calm - N/A   Clear
11:35 PM 33.8 °F - 32.0 °F 93% 30.23 in 7.0 mi Calm Calm - N/A   Clear
11:55 PM 32.0 °F - 30.2 °F 93% 30.23 in 7.0 mi Calm Calm - N/A   Clear